Tracking 35237 objects as of 6-Sep-2026
HD Live streaming from Space Station
objects crossing your sky now

COSMOS 1408 DEB


COSMOS 1408 DEB is no longer on orbit


NORAD ID: 51304
Int'l Code: 1982-092BDV
Launch date: September 16, 1982
Source: Commonwealth of Independent States (former USSR) (CIS)
Launch site: PLESETSK MISSILE AND SPACE COMPLEX (PKMTR)
Decay date: 2022-09-30

Note: This is SATELLITE DEBRIS
Your satellite tracking list
Your tracking list is empty




NASA's NSSDC Master Catalog

Two Line Element Set (TLE):
1 51304U 82092BDW 22270.94468432  .02815433  81413-2  60969-2 0  9994
2 51304  82.4632 158.4873 0006480 183.9314 176.1914 16.00424146 40217
Source of the keplerian elements: AFSPC